DW7426 Weather Reports


Display with metric or nautical units.
time (UTC)temp
F
wind
direction
speed
MPH
gust
MPH
rain 1hr
in
rain 24hr
in
rain mn
in
humidity
%
barometer
mb
20260906214405 88 198 8.0 14.0 0.00 0.00 0.00 90 1020.4
20260906213904 88 153 6.0 20.0 0.00 0.00 0.00 90 1020.5
20260906213359 90 131 11.0 15.0 0.00 0.00 0.00 90 1020.4
20260906212856 88 155 10.0 22.0 0.00 0.00 0.00 90 1020.5
20260906212352 88 148 10.0 18.0 0.00 0.00 0.00 90 1020.8
20260906211851 88 109 7.0 14.0 0.00 0.00 0.00 90 1020.9
20260906211347 88 137 10.0 16.0 0.00 0.00 0.00 90 1020.9
20260906210842 89 105 5.0 11.0 0.00 0.00 0.00 90 1020.9
20260906210337 87 156 9.0 16.0 0.00 0.00 0.00 90 1020.8
20260906205832 87 147 12.0 15.0 0.00 0.00 0.00 90 1020.9
20260906205328 88 159 9.0 15.0 0.00 0.00 0.00 90 1021.2
20260906204824 89 125 4.0 11.0 0.00 0.00 0.00 90 1021.1
20260906204323 88 154 11.0 14.0 0.00 0.00 0.00 90 1021.4
20260906203822 88 138 10.0 19.0 0.00 0.00 0.00 90 1021.2
20260906203318 88 148 5.0 15.0 0.00 0.00 0.00 90 1021.2
20260906202815 89 148 2.0 15.0 0.00 0.00 0.00 90 1021.2
20260906202314 89 134 13.0 16.0 0.00 0.00 0.00 90 1021.2
20260906201809 91 107 12.0 18.0 0.00 0.00 0.00 90 1021.0
20260906201308 89 140 9.0 15.0 0.00 0.00 0.00 90 1020.9
20260906200804 90 126 8.0 11.0 0.00 0.00 0.00 90 1021.0
20260906200300 90 144 5.0 16.0 0.00 0.00 0.00 90 1021.0
20260906195755 91 124 4.0 11.0 0.00 0.00 0.00 90 1021.2
20260906195251 90 113 5.0 9.0 0.00 0.00 0.00 90 1021.1
20260906194747 89 111 4.0 15.0 0.00 0.00 0.00 90 1021.5
20260906194243 90 169 3.0 11.0 0.00 0.00 0.00 90 1021.7
20260906193737 89 74 2.0 9.0 0.00 0.00 0.00 90 1021.5
20260906193231 89 96 2.0 9.0 0.00 0.00 0.00 90 1022.0
20260906192728 89 168 7.0 13.0 0.00 0.00 0.00 90 1021.6
20260906192228 89 160 5.0 11.0 0.00 0.00 0.00 90 1021.8
20260906191721 89 121 3.0 9.0 0.00 0.00 0.00 90 1022.0
20260906191221 87 166 4.0 12.0 0.00 0.00 0.00 90 1022.2
20260906190716 87 164 7.0 9.0 0.00 0.00 0.00 90 1022.3
20260906190210 87 157 9.0 13.0 0.00 0.00 0.00 90 1022.3
20260906185710 87 166 3.0 11.0 0.00 0.00 0.00 90 1022.2
20260906185209 87 95 6.0 9.0 0.00 0.00 0.00 90 1022.7
20260906184703 86 120 6.0 7.0 0.00 0.00 0.00 90 1022.8
20260906184159 86 174 3.0 11.0 0.00 0.00 0.00 90 1022.9
20260906183655 85 78 0.0 10.0 0.00 0.00 0.00 90 1022.9
20260906183151 84 68 5.0 8.0 0.00 0.00 0.00 90 1023.1
20260906182650 84 131 5.0 5.0 0.00 0.00 0.00 90 1023.1
20260906182146 86 123 8.0 9.0 0.00 0.00 0.00 90 1023.0
20260906181642 83 67 5.0 9.0 0.00 0.00 0.00 90 1023.4
20260906181138 85 85 9.0 11.0 0.00 0.00 0.00 90 1023.4
20260906180632 84 127 5.0 7.0 0.00 0.00 0.00 90 1023.4
20260906180127 82 63 3.0 9.0 0.00 0.00 0.00 90 1023.5
20260906175625 83 90 2.0 8.0 0.00 0.00 0.00 90 1023.6
20260906175120 83 110 5.0 8.0 0.00 0.00 0.00 90 1023.6
20260906174618 82 205 3.0 8.0 0.00 0.00 0.00 90 1023.7
20260906174113 82 137 5.0 9.0 0.00 0.00 0.00 90 1023.8
20260906173608 81 154 3.0 7.0 0.00 0.00 0.00 90 1023.9
20260906173104 81 149 6.0 9.0 0.00 0.00 0.00 90 1024.1
20260906172558 81 79 3.0 9.0 0.00 0.00 0.00 90 1024.2
20260906172054 81 101 4.0 11.0 0.00 0.00 0.00 90 1023.9
20260906171553 80 159 4.0 9.0 0.00 0.00 0.00 90 1024.1
20260906171049 80 114 2.0 7.0 0.00 0.00 0.00 90 1024.1
20260906170544 80 148 6.0 7.0 0.00 0.00 0.00 90 1024.2
20260906170043 78 116 3.0 6.0 0.00 0.00 0.00 90 1024.5
20260906165541 78 179 6.0 10.0 0.00 0.00 0.00 90 1024.4
20260906165035 79 116 6.0 7.0 0.00 0.00 0.00 90 1024.3
20260906164534 77 100 4.0 7.0 0.00 0.00 0.00 90 1024.5
20260906164031 77 189 5.0 7.0 0.00 0.00 0.00 90 1024.4
20260906163526 76 178 3.0 6.0 0.00 0.00 0.00 90 1024.6
20260906163021 76 159 2.0 7.0 0.00 0.00 0.00 90 1024.4
20260906162518 75 160 0.0 5.0 0.00 0.00 0.00 90 1024.6
20260906162013 76 169 3.0 6.0 0.00 0.00 0.00 90 1024.5
20260906161508 75 180 0.0 6.0 0.00 0.00 0.00 90 1024.4
20260906161007 75 151 2.0 6.0 0.00 0.00 0.00 90 1024.5
20260906160501 73 167 5.0 7.0 0.00 0.00 0.00 90 1024.6
20260906155958 73 145 5.0 6.0 0.00 0.00 0.00 90 1024.8
20260906155457 73 148 4.0 7.0 0.00 0.00 0.00 90 1024.9
20260906154953 73 138 5.0 7.0 0.00 0.00 0.00 90 1024.5
20260906154449 72 108 4.0 8.0 0.00 0.00 0.00 90 1024.8
20260906153947 73 153 6.0 8.0 0.00 0.00 0.00 90 1024.5
20260906153446 73 190 2.0 5.0 0.00 0.00 0.00 90 1024.5
20260906152942 71 105 0.0 5.0 0.00 0.00 0.00 90 1024.6
20260906152441 72 174 1.0 4.0 0.00 0.00 0.00 90 1024.6
20260906151941 71 99 0.0 3.0 0.00 0.00 0.00 90 1024.6
20260906151436 71 105 2.0 5.0 0.00 0.00 0.00 90 1024.6
20260906150932 71 77 0.0 2.0 0.00 0.00 0.00 90 1024.8
20260906150427 70 117 0.0 4.0 0.00 0.00 0.00 90 1024.5
20260906145927 69 90 2.0 4.0 0.00 0.00 0.00 90 1024.8
20260906145426 69 325 1.0 3.0 0.00 0.00 0.00 90 1024.6
20260906144920 68 106 0.0 3.0 0.00 0.00 0.00 90 1025.0
20260906144415 68 90 1.0 2.0 0.00 0.00 0.00 90 1024.8
20260906143910 68 26 0.0 3.0 0.00 0.00 0.00 90 1024.9
20260906143406 67 37 0.0 4.0 0.00 0.00 0.00 90 1024.8
20260906142902 67 203 1.0 3.0 0.00 0.00 0.00 90 1024.8
20260906142355 66 66 3.0 5.0 0.00 0.00 0.00 90 1024.8
20260906141850 66 30 3.0 5.0 0.00 0.00 0.00 90 1024.9
20260906141344 66 29 0.0 3.0 0.00 0.00 0.00 90 1025.0
20260906140844 66 41 0.0 3.0 0.00 0.00 0.00 90 1025.0
20260906140339 65 307 0.0 3.0 0.00 0.00 0.00 90 1024.8
20260906135836 64 280 2.0 2.0 0.00 0.00 0.00 90 1025.0
20260906135331 64 339 2.0 2.0 0.00 0.00 0.00 90 1024.8
20260906134827 64 274 2.0 3.0 0.00 0.00 0.00 90 1025.0
20260906134322 64 346 0.0 1.0 0.00 0.00 0.00 90 1025.1
20260906133818 63 261 2.0 2.0 0.00 0.00 0.00 90 1025.0
20260906133313 62 336 0.0 2.0 0.00 0.00 0.00 90 1024.9
20260906132808 61 328 0.0 2.0 0.00 0.00 0.00 90 1024.9
20260906132306 60 254 1.0 2.0 0.00 0.00 0.00 90 1024.8
20260906131759 60 294 3.0 3.0 0.00 0.00 0.00 90 1024.9
20260906131254 59 285 1.0 1.0 0.00 0.00 0.00 90 1024.8
20260906130749 59 243 1.0 1.0 0.00 0.00 0.00 90 1024.6
20260906130244 59 261 0.0 0.0 0.00 0.00 0.00 90 1024.6
20260906125743 58 243 0.0 1.0 0.00 0.00 0.00 90 1024.5
20260906125241 58 261 0.0 1.0 0.00 0.00 0.00 90 1024.6
20260906124735 57 270 0.0 1.0 0.00 0.00 0.00 90 1024.5
20260906124231 57 215 0.0 2.0 0.00 0.00 0.00 90 1024.5
20260906123730 57 246 0.0 2.0 0.00 0.00 0.00 90 1024.4
20260906123226 58 246 0.0 2.0 0.00 0.00 0.00 90 1024.3
20260906122725 58 192 1.0 4.0 0.00 0.00 0.00 90 1024.5
20260906122220 58 194 1.0 3.0 0.00 0.00 0.00 90 1024.2
20260906121717 60 123 3.0 5.0 0.00 0.00 0.00 90 1024.3
20260906121213 61 121 6.0 8.0 0.00 0.00 0.00 90 1024.3
20260906120708 59 215 1.0 1.0 0.00 0.00 0.00 90 1023.7
20260906120205 59 240 0.0 1.0 0.00 0.00 0.00 90 1024.1
20260906115700 58 248 0.0 2.0 0.00 0.00 0.00 90 1023.6
20260906115155 58 257 0.0 2.0 0.00 0.00 0.00 90 1024.2
20260906114654 59 286 1.0 3.0 0.00 0.00 0.00 90 1023.8
20260906114150 59 243 0.0 0.0 0.00 0.00 0.00 90 1023.7
20260906113649 60 240 0.0 2.0 0.00 0.00 0.00 90 1024.2
20260906113144 62 345 0.0 2.0 0.00 0.00 0.00 90 1023.8
20260906112643 62 23 0.0 2.0 0.00 0.00 0.00 90 1024.1
20260906112141 63 320 2.0 2.0 0.00 0.00 0.00 90 1024.2
20260906111640 62 355 1.0 2.0 0.00 0.00 0.00 90 1023.8
20260906111134 62 344 0.0 3.0 0.00 0.00 0.00 90 1023.9
20260906110629 61 0 2.0 3.0 0.00 0.00 0.00 90 1024.1
20260906110124 61 45 2.0 2.0 0.00 0.00 0.00 90 1023.9
20260906105618 62 345 1.0 3.0 0.00 0.00 0.00 90 1023.9
20260906105115 60 36 2.0 4.0 0.00 0.00 0.00 90 1023.8
20260906104614 62 32 2.0 3.0 0.00 0.00 0.00 90 1023.9
20260906104108 61 37 2.0 4.0 0.00 0.00 0.00 90 1024.2
20260906103606 62 60 2.0 2.0 0.00 0.00 0.00 90 1024.2
20260906103102 62 96 0.0 2.0 0.00 0.00 0.00 90 1024.1
20260906102602 62 81 2.0 3.0 0.00 0.00 0.00 90 1024.2
20260906102056 62 4 2.0 3.0 0.00 0.00 0.00 90 1024.1
20260906101551 64 352 0.0 7.0 0.00 0.00 0.00 90 1023.8
20260906101045 63 255 2.0 4.0 0.00 0.00 0.00 90 1023.9
20260906100541 63 233 2.0 3.0 0.00 0.00 0.00 90 1024.1
20260906100036 63 294 5.0 5.0 0.00 0.00 0.00 90 1023.8
20260906095530 63 270 3.0 5.0 0.00 0.00 0.00 90 1023.8
20260906095026 62 305 3.0 6.0 0.00 0.00 0.00 90 1023.7
20260906094525 62 328 5.0 5.0 0.00 0.00 0.00 90 1023.7
20260906094021 60 289 3.0 4.0 0.00 0.00 0.00 90 1023.9
20260906093516 60 277 3.0 3.0 0.00 0.00 0.00 90 1024.1
20260906093016 61 260 2.0 2.0 0.00 0.00 0.00 90 1023.7
20260906092511 62 249 1.0 1.0 0.00 0.00 0.00 90 1023.9
20260906092006 62 334 0.0 2.0 0.00 0.00 0.00 90 1024.1
20260906091502 62 346 0.0 2.0 0.00 0.00 0.00 90 1024.3
20260906090959 62 354 1.0 3.0 0.00 0.00 0.00 90 1024.2
20260906090453 62 8 0.0 2.0 0.00 0.00 0.00 90 1024.1
20260906085953 62 81 0.0 3.0 0.00 0.00 0.00 90 1024.2
20260906085452 62 74 0.0 2.0 0.00 0.00 0.00 90 1023.8
20260906084951 61 195 2.0 3.0 0.00 0.00 0.00 90 1024.2
20260906084447 62 173 2.0 4.0 0.00 0.00 0.00 90 1024.2
20260906083945 62 143 4.0 7.0 0.00 0.00 0.00 90 1024.1
20260906083441 63 125 5.0 7.0 0.00 0.00 0.00 90 1023.9
20260906082940 63 115 10.0 10.0 0.00 0.00 0.00 90 1023.9
20260906082436 64 150 7.0 8.0 0.00 0.00 0.00 90 1023.7
20260906081931 66 93 9.0 10.0 0.00 0.00 0.00 90 1023.7
20260906081427 67 147 2.0 4.0 0.00 0.00 0.00 90 1023.5
20260906080923 67 186 1.0 2.0 0.00 0.00 0.00 90 1023.6
20260906080419 68 186 3.0 3.0 0.00 0.00 0.00 90 1023.7
20260906075918 68 180 3.0 3.0 0.00 0.00 0.00 90 1023.7
20260906075414 68 180 2.0 3.0 0.00 0.00 0.00 90 1023.8
20260906074909 69 199 6.0 8.0 0.00 0.00 0.00 90 1023.9
20260906074403 71 232 8.0 9.0 0.00 0.00 0.00 90 1023.7
20260906073901 70 236 9.0 10.0 0.00 0.00 0.00 90 1023.7
20260906073356 71 226 9.0 15.0 0.00 0.00 0.00 90 1023.7
20260906072853 70 233 9.0 13.0 0.00 0.00 0.00 90 1023.5
20260906072348 69 250 4.0 8.0 0.00 0.00 0.00 90 1023.9
20260906071844 70 279 5.0 9.0 0.00 0.00 0.00 90 1023.8
20260906071339 70 238 7.0 7.0 0.00 0.00 0.00 90 1023.8
20260906070836 69 266 5.0 7.0 0.00 0.00 0.00 90 1023.7
20260906070331 70 199 3.0 5.0 0.00 0.00 0.00 90 1023.7
20260906065826 72 231 2.0 4.0 0.00 0.00 0.00 90 1023.7
20260906065321 71 250 2.0 3.0 0.00 0.00 0.00 90 1023.6
20260906064817 71 241 2.0 4.0 0.00 0.00 0.00 90 1023.5
20260906064313 71 15 0.0 3.0 0.00 0.00 0.00 90 1023.9
20260906063807 70 310 3.0 4.0 0.00 0.00 0.00 90 1023.7
20260906063303 71 305 5.0 6.0 0.00 0.00 0.00 90 1023.6
20260906062757 69 304 4.0 5.0 0.00 0.00 0.00 90 1023.7
20260906062256 70 302 5.0 5.0 0.00 0.00 0.00 90 1023.6
20260906061752 70 99 4.0 5.0 0.00 0.00 0.00 90 1023.5
20260906061249 70 332 2.0 3.0 0.00 0.00 0.00 90 1023.7
20260906060743 72 97 3.0 6.0 0.00 0.00 0.00 90 1023.4
20260906060241 71 125 4.0 5.0 0.00 0.00 0.00 90 1023.6
20260906055736 71 103 2.0 4.0 0.00 0.00 0.00 90 1023.5
20260906055231 71 105 4.0 6.0 0.00 0.00 0.00 90 1023.7
20260906054727 70 123 2.0 3.0 0.00 0.00 0.00 90 1023.6
20260906054222 71 83 6.0 10.0 0.00 0.00 0.00 90 1023.6
20260906053719 76 189 6.0 15.0 0.00 0.00 0.00 90 1023.6
20260906053214 76 194 11.0 15.0 0.00 0.00 0.00 90 1023.7
20260906052709 72 234 3.0 5.0 0.00 0.00 0.00 90 1023.6
20260906052205 73 176 3.0 5.0 0.00 0.00 0.00 90 1023.6
20260906051702 73 152 2.0 6.0 0.00 0.00 0.00 90 1023.9
20260906051201 73 140 7.0 7.0 0.00 0.00 0.00 90 1023.7
20260906050657 72 139 9.0 10.0 0.00 0.00 0.00 90 1023.9
20260906050152 73 148 8.0 9.0 0.00 0.00 0.00 90 1024.1
20260906045650 73 172 5.0 8.0 0.00 0.00 0.00 90 1024.1
20260906045145 73 161 6.0 11.0 0.00 0.00 0.00 90 1024.2
20260906044641 73 152 7.0 13.0 0.00 0.00 0.00 90 1024.4
20260906044136 72 160 7.0 12.0 0.00 0.00 0.00 90 1024.2
20260906043633 72 147 4.0 7.0 0.00 0.00 0.00 90 1024.3
20260906043128 73 113 7.0 14.0 0.00 0.00 0.00 90 1024.2
20260906042627 74 90 9.0 11.0 0.00 0.00 0.00 90 1024.3
20260906042121 74 142 5.0 6.0 0.00 0.00 0.00 90 1024.2
20260906041617 76 147 5.0 10.0 0.00 0.00 0.00 90 1024.1
20260906041112 75 193 3.0 6.0 0.00 0.00 0.00 90 1024.2
20260906040608 76 197 4.0 7.0 0.00 0.00 0.00 90 1024.2
20260906035558 77 167 6.0 11.0 0.00 0.00 0.00 90 1024.2
20260906035053 77 179 5.0 10.0 0.00 0.00 0.00 90 1024.4
20260906034548 77 184 6.0 12.0 0.00 0.00 0.00 90 1024.1
20260906034043 76 172 7.0 9.0 0.00 0.00 0.00 90 1024.1
20260906033538 76 170 4.0 7.0 0.00 0.00 0.00 90 1024.3
20260906033033 76 168 4.0 9.0 0.00 0.00 0.00 90 1024.3
20260906032530 76 133 3.0 9.0 0.00 0.00 0.00 90 1024.1
20260906032025 76 173 6.0 9.0 0.00 0.00 0.00 90 1024.2
20260906031520 76 148 5.0 12.0 0.00 0.00 0.00 90 1024.1
20260906031016 76 163 6.0 8.0 0.00 0.00 0.00 90 1024.1
20260906030515 77 165 8.0 12.0 0.00 0.00 0.00 90 1024.2
20260906030015 77 162 7.0 13.0 0.00 0.00 0.00 90 1024.2
20260906025514 76 134 5.0 8.0 0.00 0.00 0.00 90 1024.1
20260906025012 76 143 5.0 6.0 0.00 0.00 0.00 90 1024.1
20260906024508 77 114 4.0 10.0 0.00 0.00 0.00 90 1023.7
20260906024008 77 113 3.0 7.0 0.00 0.00 0.00 90 1023.7
20260906023504 78 146 6.0 7.0 0.00 0.00 0.00 90 1023.9
20260906022959 79 153 5.0 15.0 0.00 0.00 0.00 90 1023.8
20260906022454 78 115 9.0 12.0 0.00 0.00 0.00 90 1023.6
20260906021949 78 247 2.0 3.0 0.00 0.00 0.00 90 1023.2
20260906021444 77 254 1.0 1.0 0.00 0.00 0.00 90 1023.4
20260906020938 78 261 0.0 1.0 0.00 0.00 0.00 90 1022.9
20260906020433 78 246 0.0 1.0 0.00 0.00 0.00 90 1023.0
20260906015927 78 254 2.0 2.0 0.00 0.00 0.00 90 1022.9
20260906015427 78 248 2.0 2.0 0.00 0.00 0.00 90 1023.1
20260906014926 79 276 2.0 3.0 0.00 0.00 0.00 90 1022.8
20260906014426 80 266 3.0 3.0 0.00 0.00 0.00 90 1022.7
20260906013922 81 270 2.0 3.0 0.00 0.00 0.00 90 1022.9
20260906013418 82 228 2.0 2.0 0.00 0.00 0.00 90 1022.7
20260906012914 82 148 0.0 3.0 0.00 0.00 0.00 90 1022.8
20260906012408 82 191 4.0 4.0 0.00 0.00 0.00 90 1022.7
20260906011907 82 240 0.0 1.0 0.00 0.00 0.00 90 1022.9
20260906011402 83 174 0.0 4.0 0.00 0.00 0.00 90 1022.9
20260906010858 83 202 3.0 4.0 0.00 0.00 0.00 90 1023.2
20260906010354 84 151 2.0 3.0 0.00 0.00 0.00 90 1022.9
20260906005850 84 133 3.0 5.0 0.00 0.00 0.00 90 1022.8
20260906005349 85 126 4.0 5.0 0.00 0.00 0.00 90 1023.0
20260906004847 85 128 4.0 8.0 0.00 0.00 0.00 90 1022.8
20260906004347 84 126 4.0 7.0 0.00 0.00 0.00 90 1022.8
20260906003842 85 126 0.0 7.0 0.00 0.00 0.00 90 1022.9
20260906003338 85 110 3.0 7.0 0.00 0.00 0.00 90 1022.8
20260906002833 85 113 5.0 6.0 0.00 0.00 0.00 90 1022.5
20260906002332 86 93 3.0 7.0 0.00 0.00 0.00 90 1022.7
20260906001828 85 123 4.0 7.0 0.00 0.00 0.00 90 1022.7
20260906001324 85 108 3.0 5.0 0.00 0.00 0.00 90 1022.7
20260906000819 86 103 5.0 6.0 0.00 0.00 0.00 90 1022.8
20260906000313 86 105 3.0 6.0 0.00 0.00 0.00 90 1022.7
20260905235808 86 115 5.0 8.0 0.00 0.00 0.00 90 1022.7
20260905235306 86 111 9.0 13.0 0.00 0.00 0.00 90 1022.3
20260905234758 86 120 6.0 11.0 0.00 0.00 0.00 90 1022.7
20260905234253 86 135 3.0 7.0 0.00 0.00 0.00 90 1022.5
20260905233748 87 116 5.0 11.0 0.00 0.00 0.00 90 1022.3
20260905233248 88 143 5.0 10.0 0.00 0.00 0.00 90 1022.5
20260905232747 88 97 6.0 11.0 0.00 0.00 0.00 90 1022.5
20260905232243 88 144 5.0 10.0 0.00 0.00 0.00 90 1022.5
20260905231739 90 128 4.0 9.0 0.00 0.00 0.00 90 1022.4
20260905231234 89 178 4.0 18.0 0.00 0.00 0.00 90 1022.5
20260905230731 88 127 5.0 13.0 0.00 0.00 0.00 90 1022.7
20260905230228 88 108 8.0 10.0 0.00 0.00 0.00 90 1022.4
20260905225728 88 69 4.0 7.0 0.00 0.00 0.00 90 1022.5
20260905225223 88 102 3.0 5.0 0.00 0.00 0.00 90 1022.5
20260905224722 89 102 3.0 13.0 0.00 0.00 0.00 90 1022.8
20260905224218 89 141 4.0 6.0 0.00 0.00 0.00 90 1022.5
20260905223714 89 188 1.0 8.0 0.00 0.00 0.00 90 1022.7
20260905223210 87 131 0.0 9.0 0.00 0.00 0.00 90 1022.5
20260905222706 87 173 4.0 7.0 0.00 0.00 0.00 90 1022.8
20260905222205 87 225 3.0 9.0 0.00 0.00 0.00 90 1022.9
20260905221701 87 143 7.0 8.0 0.00 0.00 0.00 90 1022.8
20260905221158 87 148 5.0 8.0 0.00 0.00 0.00 90 1022.8
20260905220653 87 143 10.0 15.0 0.00 0.00 0.00 90 1022.8
20260905220149 89 153 4.0 12.0 0.00 0.00 0.00 90 1023.0
20260905215648 90 183 3.0 9.0 0.00 0.00 0.00 90 1023.0
20260905215144 88 119 6.0 11.0 0.00 0.00 0.00 90 1023.1